Temperature
23 23 22 22 20 19 21 23 25 26 26 27 27 26 25 24 23 22 22 22 22 22 21 21 21 21 21 21 20 20 20 20 20 20 19 19 19 19 19 19 19 19 19 19 18 18 18 18 18
23 23 22 21 19 20 22 24 25 26 27 27 27 26 25 24 23 22 22 22 22 22 21 21 21 21 21 20 20 20 20 20 19 19 19 19 19 19 19 19 19 18 18 18 18 18 18 18 18
23 23 22 19 20 21 23 25 26 27 27 27 27 26 25 24 23 23 23 22 22 22 22 21 21 21 20 20 20 20 20 19 19 19 19 19 19 19 19 19 18 18 18 18 18 18 18 18 18
23 22 22 20 22 23 24 25 26 27 27 27 26 25 25 24 24 24 23 23 22 22 22 21 21 21 20 20 20 20 20 19 19 19 19 19 19 18 18 18 18 18 18 18 18 18 18 18 18
23 22 20 20 22 24 25 26 27 27 27 26 26 24 24 24 24 23 23 23 23 22 22 21 21 21 20 20 20 20 19 19 19 19 19 19 18 18 18 18 18 18 18 18 18 18 18 18 18
23 21 20 20 23 25 26 27 27 27 26 26 25 24 23 24 24 23 23 23 23 22 22 21 21 20 20 20 20 20 19 19 19 19 19 18 18 18 18 18 18 18 18 18 18 18 18 18 18
22 20 20 22 23 25 27 28 27 26 26 26 26 23 23 23 23 23 23 23 22 22 21 21 21 20 20 20 20 19 19 19 19 19 18 18 18 18 18 18 18 18 18 18 18 18 18 18 17
24 20 21 22 23 24 26 27 27 27 26 27 26 23 23 23 23 23 22 22 22 22 21 21 20 20 20 20 19 19 19 19 19 18 18 18 18 18 18 18 18 18 18 18 18 18 18 17 17
24 20 20 22 24 25 26 27 27 27 27 26 26 25 25 24 23 23 22 21 21 21 21 21 20 20 20 19 19 19 19 19 18 18 18 18 18 18 17 17 17 17 17 17 17 17 17 17 17
23 19 21 23 25 25 26 26 27 26 25 25 25 25 24 24 23 23 22 22 21 21 21 20 20 20 20 19 19 19 19 18 18 18 18 18 18 18 17 17 17 17 17 17 17 17 17 17 17
23 22 23 25 26 27 26 27 27 26 24 25 24 24 24 23 23 23 22 22 22 21 21 20 20 20 20 19 19 19 19 18 18 18 18 18 18 17 17 17 17 17 17 17 17 17 17 17 17
23 24 25 26 27 27 27 27 27 26 26 26 26 25 24 23 23 23 22 22 22 21 21 20 20 20 19 19 19 19 19 18 18 18 18 18 18 18 17 17 17 17 17 17 17 17 17 17 17
23 24 26 27 27 27 27 27 27 27 27 26 25 25 24 24 23 23 23 22 22 21 21 20 20 20 19 19 19 19 19 18 18 18 18 18 18 18 17 17 17 17 17 17 17 17 16 17 17
24 25 26 27 27 27 26 26 26 26 27 26 25 24 24 24 24 23 22 22 22 21 21 20 20 20 20 19 19 19 19 18 18 18 18 18 18 18 17 17 17 17 17 17 17 17 16 16 16
25 24 24 25 26 27 26 25 25 26 26 25 25 24 24 24 24 23 23 22 22 21 21 21 20 20 20 19 19 19 19 18 18 18 18 17 17 17 17 17 17 17 17 16 16 16 16 16 16
23 23 22 24 25 26 26 24 25 26 25 24 24 24 24 23 23 23 23 23 22 21 21 21 20 20 20 19 19 19 18 18 18 18 18 17 17 17 17 17 17 17 17 16 16 16 16 16 16
21 21 22 23 25 25 25 23 24 25 25 23 23 23 23 23 23 23 23 22 22 21 21 20 20 20 19 19 19 19 18 18 18 18 17 17 17 17 17 17 17 17 16 16 16 16 16 16 16
20 21 22 23 24 25 24 23 23 24 24 23 23 23 22 22 22 22 22 22 22 21 21 20 20 19 19 19 19 18 18 18 18 17 17 17 17 17 17 17 16 16 16 16 16 16 16 16 16
22 22 22 23 25 24 23 23 23 23 23 22 22 22 22 22 22 22 22 21 21 21 20 20 20 19 19 18 18 18 18 17 17 17 17 17 17 17 17 16 16 16 16 16 16 16 16 16 16
22 22 22 23 25 25 23 23 23 22 22 22 22 22 21 21 21 21 21 21 21 20 20 20 20 19 19 18 18 18 17 17 17 17 17 17 17 16 16 16 16 16 16 16 16 16 16 16 15
23 22 22 23 23 24 23 22 22 22 22 22 22 22 21 21 20 20 20 21 20 20 20 19 19 19 19 18 18 17 17 17 17 17 16 16 16 16 16 16 16 16 16 16 16 16 16 15 15
22 23 23 24 22 21 22 20 20 20 20 21 21 21 21 20 20 20 20 20 20 20 20 19 19 19 18 18 17 17 17 17 17 16 16 16 16 16 16 16 15 16 16 16 16 15 15 15 15
22 23 23 23 22 21 21 20 19 20 20 19 19 20 20 20 20 20 20 20 20 20 19 19 19 18 18 17 17 17 17 17 17 16 16 16 16 16 15 15 15 15 15 15 15 15 15 15 15
23 23 22 20 19 20 20 20 19 19 20 19 19 20 20 20 19 19 19 19 19 19 19 18 18 18 18 17 17 17 17 17 16 16 16 16 16 16 15 15 15 15 15 15 15 15 15 15 15
22 20 19 19 18 19 20 20 18 19 20 20 19 19 19 19 19 19 19 19 19 19 18 18 18 18 17 17 17 17 17 17 16 16 16 16 16 16 15 15 15 15 15 15 15 15 15 15 15
21 19 18 19 18 18 19 19 19 20 20 20 20 20 19 19 19 19 19 19 19 18 18 18 18 17 17 17 17 17 16 16 16 16 16 16 15 15 15 15 15 15 15 15 15 15 15 15 15
22 20 19 18 19 18 18 19 19 19 19 19 19 19 19 19 19 19 19 19 18 18 18 18 18 17 17 17 16 16 16 16 16 16 15 15 15 15 15 15 15 15 15 15 14 14 15 14 14
21 20 18 17 18 18 18 18 18 18 18 18 18 18 18 19 18 18 18 18 18 18 18 17 17 17 17 16 16 16 16 16 16 15 15 15 15 15 15 15 14 14 14 14 14 14 14 14 14
21 20 18 17 17 17 17 17 18 17 17 17 17 18 18 18 18 18 18 18 18 18 17 17 17 16 16 16 15 16 15 15 15 15 15 15 15 15 14 14 14 14 14 14 14 14 14 14 14
21 20 18 17 17 17 16 17 18 17 17 17 17 18 18 18 18 18 18 18 17 17 17 16 16 16 16 15 15 15 15 15 15 15 15 14 14 14 14 14 14 14 14 14 14 14 14 14 14
Wind_Speed
5 4 2 2 4 4 2 3 2 2 2 3 5 7 7 5 5 5 4 14 16 14 14 16 16 17 16 16 15 15 14 14 14 14 15 15 15 14 14 13 12 12 12 12 12 11 10 10 10
3 2 2 3 4 2 4 4 3 3 4 6 6 7 8 6 7 11 8 14 17 15 14 16 17 16 16 16 15 14 14 14 14 14 14 14 14 14 13 13 13 12 12 11 11 10 9 9 9
3 2 2 3 2 4 4 4 3 2 3 4 3 4 5 7 9 9 11 18 15 13 14 17 18 16 16 16 15 14 13 13 13 13 13 13 13 13 13 13 12 12 11 10 9 8 8 8 7
1 2 3 3 4 6 5 6 3 1 1 3 5 5 4 5 8 11 19 19 17 12 13 17 19 17 16 16 15 14 13 13 13 13 12 12 12 12 12 11 11 11 10 10 9 8 7 6 5
3 3 3 3 6 5 5 6 4 2 1 4 6 5 3 3 14 20 20 19 17 13 12 16 19 18 17 16 15 14 13 13 13 12 12 11 11 11 11 10 10 9 9 8 7 7 6 5 5
3 3 2 4 6 6 4 3 1 4 5 5 7 6 3 7 15 18 18 17 16 15 12 15 18 18 16 16 15 15 14 13 12 12 11 11 11 10 10 10 9 8 8 7 6 5 5 5 5
3 2 3 4 5 5 4 0 3 3 3 3 7 6 4 7 12 16 16 15 14 13 12 10 14 16 16 15 14 14 13 12 12 11 10 10 10 9 9 9 9 8 7 6 5 4 4 4 4
5 2 3 3 4 5 4 2 2 4 2 4 6 8 7 9 12 14 13 12 12 11 10 9 10 12 12 13 14 13 12 11 11 10 10 10 9 9 9 8 8 8 6 5 5 5 3 2 2
3 2 5 5 4 4 4 1 1 2 4 2 2 6 10 16 16 15 12 10 9 10 8 8 9 9 10 11 12 12 12 11 10 9 9 9 7 7 7 8 9 8 7 6 6 5 3 1 1
5 4 8 7 6 5 5 3 3 2 3 2 5 6 12 16 17 16 15 13 12 11 10 9 9 9 9 9 9 9 9 8 8 6 7 7 6 6 6 8 9 7 6 5 5 4 2 1 0
5 8 8 9 11 7 6 6 3 4 3 6 12 14 15 15 15 15 14 13 13 12 11 10 10 9 8 6 7 6 6 6 6 7 6 6 5 5 5 4 5 5 5 3 3 2 2 1 2
5 8 8 10 10 7 8 5 3 5 8 9 15 18 16 15 15 15 14 13 12 12 11 10 10 9 8 7 6 6 4 4 4 6 7 6 3 3 3 3 3 3 3 3 2 2 2 2 3
7 10 11 11 10 9 7 6 4 5 6 10 13 15 15 16 14 12 12 11 11 12 11 11 10 10 8 7 5 6 5 5 5 6 7 7 4 4 4 3 3 3 4 3 2 2 1 2 2
7 8 10 10 9 7 6 7 3 7 6 10 14 14 14 14 14 11 11 10 11 11 11 10 10 10 9 7 6 6 6 6 6 6 7 8 6 5 4 3 3 3 4 4 3 2 2 2 2
5 8 10 9 7 6 2 5 5 7 7 10 12 12 12 11 12 13 13 13 13 12 10 10 11 10 9 8 7 6 6 6 5 5 7 7 7 6 5 4 3 4 5 4 3 2 2 2 2
6 5 6 9 6 6 3 7 9 7 10 10 10 10 10 9 10 11 11 11 12 12 11 10 11 10 9 8 7 6 6 6 5 6 6 7 7 6 5 4 3 3 4 3 3 2 2 1 1
3 4 7 10 7 4 2 6 7 6 9 9 9 9 9 9 8 8 10 11 12 12 11 10 9 10 9 7 6 6 6 5 5 5 5 6 6 6 5 3 3 3 3 2 3 2 2 2 1
8 6 7 9 6 2 3 6 6 6 9 9 8 8 9 10 9 9 9 10 11 11 11 10 9 8 8 6 4 4 4 3 4 4 5 5 5 6 5 3 3 3 3 2 2 2 2 2 1
9 9 11 12 10 4 4 5 5 4 5 6 6 7 8 8 7 8 9 9 10 9 9 10 9 8 8 6 5 5 4 3 3 3 5 5 5 5 5 3 3 3 3 3 3 3 2 1 1
9 10 11 10 8 3 2 3 4 4 8 9 9 9 9 8 7 8 8 8 9 9 9 8 9 9 8 7 6 5 4 3 3 2 3 5 5 5 5 4 4 3 3 3 3 3 2 1 2
10 9 9 9 7 3 1 3 4 3 1 4 6 8 9 12 12 10 10 9 9 8 8 8 8 8 8 7 5 4 3 2 1 2 2 3 5 5 5 5 4 4 4 4 3 3 3 2 1
10 10 10 8 3 4 1 3 6 3 1 1 3 6 7 9 10 10 10 9 9 8 7 6 6 7 7 7 7 7 6 5 4 4 3 3 3 4 5 5 5 4 3 4 3 3 3 3 2
10 9 8 6 4 3 2 3 6 2 3 4 4 6 8 10 11 11 10 9 8 8 7 7 6 6 6 6 7 7 5 4 3 3 3 3 2 3 4 4 4 4 3 4 3 3 3 3 3
6 2 3 2 2 2 5 4 5 4 6 5 5 6 9 10 10 9 8 7 7 7 7 7 7 5 6 6 6 6 7 6 5 4 4 3 2 2 3 4 4 4 3 4 4 4 4 3 3
2 3 3 4 2 5 4 3 5 5 4 6 7 7 7 9 10 9 8 8 8 8 8 7 8 6 5 6 5 6 7 7 7 5 5 4 3 3 4 4 4 3 4 4 4 4 3 3 3
5 8 7 5 5 4 2 3 4 3 1 3 5 7 7 8 9 9 10 9 9 9 8 8 8 7 6 5 5 5 5 4 4 5 5 5 4 4 4 4 4 3 4 3 3 3 4 3 4
4 5 8 6 2 1 3 3 4 5 4 3 3 5 6 8 8 9 9 8 9 8 8 8 8 6 6 5 5 4 4 4 4 4 4 4 3 4 4 4 4 4 4 4 3 3 4 3 4
5 5 5 5 4 3 3 3 3 3 1 1 2 3 4 6 8 8 8 8 8 8 7 7 7 6 5 5 5 5 4 4 4 4 4 4 3 3 4 3 4 4 3 3 3 3 3 4 4
1 2 3 3 5 5 3 5 4 7 5 3 3 3 5 6 8 8 8 7 7 7 7 7 7 5 4 4 4 4 4 4 4 3 4 4 3 4 4 4 3 3 3 3 3 3 3 4 4
4 3 5 4 3 4 4 5 4 6 5 5 3 3 4 6 6 7 8 7 7 7 6 6 6 5 4 4 4 4 4 4 4 3 3 4 4 4 4 3 3 3 3 3 4 4 4 4 4
Wind_Direction
209 195 141 75 54 42 300 265 240 38 42 69 83 94 94 80 116 142 145 142 142 146 149 144 138 133 129 125 120 117 114 113 112 110 111 113 114 114 113 113 112 111 118 121 124 125 124 124 123
194 181 84 63 80 49 288 258 241 193 149 117 86 94 88 80 100 120 133 145 144 146 147 144 140 135 132 129 126 123 120 119 117 115 115 116 116 115 113 111 110 107 109 115 120 123 122 122 122
234 184 97 77 122 185 227 246 229 205 158 125 91 67 89 120 125 141 150 147 142 144 146 146 143 139 136 135 133 129 127 125 124 122 120 119 118 117 115 113 110 108 108 111 114 115 117 122 124
111 61 45 65 254 234 215 245 236 204 55 71 90 62 60 118 137 142 143 145 143 147 148 148 146 143 140 139 138 135 134 133 132 129 126 124 123 121 120 117 114 112 112 115 117 118 112 114 123
79 81 45 311 262 256 240 244 239 180 149 95 98 91 64 64 118 134 143 146 146 148 151 151 149 146 143 141 141 141 140 138 137 136 134 132 129 126 126 123 120 121 121 121 123 126 122 118 127
45 71 72 279 279 280 276 260 143 93 112 116 112 112 120 128 128 142 146 147 149 150 151 151 151 149 148 147 146 147 146 144 142 142 140 137 134 131 130 130 130 129 129 128 129 134 137 134 134
131 111 225 254 287 295 276 301 106 117 133 158 135 116 141 152 146 146 145 145 146 147 146 147 151 152 152 152 152 152 152 151 148 147 147 145 142 140 141 138 137 140 138 135 130 134 139 135 135
159 110 281 267 269 276 273 299 154 136 152 152 127 139 166 175 147 137 134 135 140 144 147 149 148 151 153 154 155 156 155 153 150 150 152 152 152 152 154 152 150 153 152 150 144 139 140 130 137
132 107 251 244 242 261 278 308 287 117 113 117 127 156 165 149 137 130 130 127 140 148 153 154 152 152 154 156 162 159 157 155 153 156 157 154 150 156 162 163 161 163 161 158 156 155 156 151 163
143 187 235 234 230 248 273 258 236 133 115 113 101 112 140 141 139 141 148 152 156 160 165 165 162 159 158 160 157 158 161 158 157 160 159 156 156 164 161 165 166 166 169 173 174 174 179 158 110
194 209 237 251 252 254 268 266 234 159 195 181 157 153 153 147 148 153 157 160 163 165 165 167 164 162 161 154 154 161 162 158 163 167 165 159 156 158 153 154 163 171 180 185 194 195 187 167 169
246 250 241 250 255 253 251 252 225 202 210 186 164 157 155 156 158 163 164 165 160 159 166 165 163 160 161 155 158 160 159 162 167 169 164 158 151 150 157 167 170 176 184 183 192 193 194 192 178
253 260 264 259 261 248 250 246 225 233 195 162 159 156 160 164 168 169 163 159 155 161 167 168 162 161 160 153 162 160 168 170 168 162 167 160 161 172 172 179 184 188 182 183 179 179 160 146 138
253 267 272 269 267 257 249 263 219 236 189 161 161 167 171 171 170 164 155 156 160 165 169 167 164 162 157 162 169 167 168 164 159 160 167 168 165 169 176 181 187 187 175 175 173 164 153 152 142
280 299 301 282 265 254 227 286 241 212 171 165 168 171 174 172 166 167 165 166 168 168 164 163 164 163 161 165 169 164 165 158 160 163 164 167 165 165 170 172 183 191 177 163 150 142 145 140 133
331 318 290 284 285 271 184 253 259 195 164 169 172 170 167 167 168 169 165 167 166 163 159 160 163 162 164 166 164 161 162 159 162 161 160 163 165 165 160 168 183 181 163 150 146 138 133 130 140
325 271 271 286 280 266 201 240 246 198 165 167 170 167 165 163 166 167 160 163 164 162 157 156 155 161 163 159 156 155 156 160 162 159 161 168 170 168 158 168 174 158 145 152 157 135 141 150 180
251 256 273 274 284 301 255 241 239 199 165 163 165 168 162 163 170 165 154 152 155 158 157 155 154 159 154 148 137 137 145 157 160 166 169 168 174 171 158 159 162 152 146 154 148 145 147 161 178
244 261 270 272 274 278 246 240 237 196 155 159 166 165 165 168 159 147 143 144 142 149 154 160 160 160 154 157 159 158 168 167 167 174 164 161 164 165 159 158 159 156 159 173 170 151 146 157 114
250 260 271 283 280 261 252 254 228 189 177 174 176 176 164 149 138 146 143 143 149 155 158 164 166 165 166 171 173 169 160 162 167 164 153 159 162 166 169 157 163 161 157 158 158 147 146 164 127
255 243 250 259 288 318 22 306 290 272 195 176 175 170 162 156 154 155 154 153 155 164 165 166 169 168 170 166 148 133 110 99 118 158 172 177 174 170 165 169 160 160 161 173 179 165 159 176 192
255 250 246 252 251 274 206 262 281 254 260 219 174 169 164 156 152 154 153 156 163 169 162 156 159 162 165 160 158 156 163 170 186 180 179 178 174 170 174 170 167 168 169 176 191 178 170 162 188
237 246 245 244 227 269 284 199 274 260 233 225 186 175 166 164 160 161 161 163 162 157 156 155 147 153 152 157 169 164 161 168 157 149 158 170 182 180 177 175 174 174 180 184 189 178 176 173 182
230 262 332 31 85 260 247 191 264 236 220 204 184 177 170 166 160 156 152 147 148 147 156 158 150 151 152 157 168 167 159 154 149 158 171 178 180 194 193 182 181 184 188 193 197 193 189 189 187
157 107 20 346 339 249 245 191 246 247 224 193 183 180 171 162 158 155 150 152 155 157 161 164 159 157 162 161 166 171 167 160 164 169 176 174 182 200 204 194 191 191 198 203 199 196 205 198 196
213 154 168 203 224 266 302 220 254 284 225 187 166 159 159 161 159 161 166 164 161 160 161 160 159 160 161 159 168 169 162 160 169 170 174 180 191 197 190 188 192 198 200 207 201 209 217 207 209
190 196 183 158 196 234 269 276 313 7 40 58 109 139 161 173 166 168 166 157 153 156 157 158 155 151 148 151 152 148 147 151 162 171 175 183 190 190 183 186 188 199 205 205 202 216 223 214 214
170 170 99 126 165 230 267 258 248 285 304 76 121 171 176 165 170 168 162 156 156 154 151 155 154 155 150 158 165 155 154 158 160 162 177 186 189 183 177 184 193 201 205 202 198 215 223 213 224
359 95 113 142 159 166 221 256 220 210 204 172 180 189 173 156 159 163 160 153 147 144 150 155 150 145 147 168 167 153 156 158 157 170 185 185 184 179 179 186 187 196 203 200 198 214 213 214 225
176 173 150 158 225 175 179 251 252 195 198 179 181 182 158 156 156 156 147 142 141 146 149 153 151 146 166 172 161 163 163 162 171 183 186 181 184 187 185 179 182 195 199 201 204 215 214 211 222
Height
1509 1509 1509 1510 1512 1521 1521 1508 1498 1493 1492 1490 1489 1489 1492 1496 1501 1509 1506 1506 1508 1509 1510 1511 1512 1513 1513 1514 1515 1515 1516 1517 1518 1519 1520 1521 1521 1522 1522 1523 1523 1524 1524 1525 1526 1527 1528 1529 1530
1509 1509 1510 1510 1519 1531 1522 1504 1497 1492 1491 1490 1490 1491 1492 1497 1498 1501 1503 1506 1508 1509 1510 1511 1512 1513 1514 1514 1515 1516 1517 1518 1519 1520 1521 1522 1522 1523 1523 1524 1524 1525 1525 1526 1527 1527 1528 1529 1530
1509 1509 1510 1512 1520 1525 1515 1500 1494 1490 1490 1489 1491 1492 1494 1497 1499 1501 1503 1505 1507 1509 1510 1511 1512 1514 1514 1515 1516 1517 1518 1519 1520 1520 1521 1522 1523 1523 1524 1524 1525 1525 1526 1527 1527 1528 1528 1529 1530
1510 1510 1511 1516 1517 1508 1500 1495 1491 1490 1490 1489 1490 1494 1496 1499 1498 1500 1503 1505 1507 1509 1510 1511 1512 1514 1515 1515 1516 1517 1518 1519 1520 1521 1522 1523 1523 1524 1524 1525 1526 1526 1526 1527 1527 1528 1529 1529 1530
1509 1509 1515 1520 1513 1500 1493 1490 1490 1489 1489 1490 1491 1495 1498 1500 1499 1500 1502 1505 1507 1508 1510 1511 1512 1514 1515 1516 1517 1518 1519 1519 1520 1521 1522 1523 1524 1524 1525 1525 1526 1526 1527 1527 1528 1528 1529 1530 1529
1509 1510 1522 1524 1510 1496 1491 1488 1489 1489 1490 1491 1492 1495 1500 1501 1501 1502 1503 1505 1507 1508 1510 1511 1513 1514 1515 1516 1517 1518 1519 1520 1521 1522 1523 1523 1524 1525 1526 1526 1526 1527 1527 1527 1528 1529 1529 1530 1529
1509 1513 1519 1515 1508 1499 1491 1488 1488 1489 1490 1491 1491 1495 1499 1501 1501 1502 1504 1505 1507 1509 1510 1511 1513 1514 1515 1516 1517 1518 1519 1520 1521 1522 1523 1524 1524 1525 1526 1526 1527 1527 1527 1528 1528 1529 1529 1530 1530
1507 1511 1513 1511 1507 1500 1490 1488 1487 1488 1489 1490 1490 1493 1496 1499 1501 1503 1505 1506 1507 1509 1510 1511 1513 1514 1515 1516 1517 1518 1519 1520 1521 1522 1523 1524 1524 1525 1526 1526 1526 1527 1527 1528 1529 1529 1529 1530 1530
1505 1513 1517 1509 1502 1496 1489 1488 1487 1487 1488 1489 1489 1490 1492 1496 1499 1502 1504 1506 1507 1508 1510 1511 1512 1513 1515 1516 1517 1518 1519 1520 1521 1522 1523 1524 1524 1525 1525 1526 1526 1527 1527 1528 1528 1529 1529 1530 1530
1502 1512 1506 1496 1493 1491 1489 1487 1486 1487 1487 1488 1489 1491 1492 1495 1497 1499 1501 1503 1505 1507 1509 1510 1511 1513 1514 1515 1517 1518 1519 1520 1521 1522 1523 1523 1524 1525 1525 1526 1526 1527 1527 1528 1528 1529 1529 1530 1530
1497 1500 1494 1490 1488 1487 1486 1485 1484 1485 1486 1485 1486 1489 1492 1494 1495 1498 1499 1501 1503 1505 1507 1509 1510 1512 1513 1515 1516 1517 1518 1519 1520 1521 1522 1523 1524 1524 1525 1525 1526 1526 1527 1528 1528 1529 1529 1530 1530
1494 1490 1488 1486 1484 1484 1483 1482 1481 1481 1481 1482 1483 1485 1489 1492 1494 1495 1497 1499 1501 1504 1506 1508 1509 1511 1512 1514 1515 1516 1518 1519 1520 1520 1521 1522 1523 1523 1524 1525 1526 1526 1527 1527 1528 1528 1529 1530 1530
1491 1488 1484 1482 1481 1480 1480 1479 1478 1477 1478 1481 1483 1485 1487 1489 1491 1494 1496 1498 1500 1502 1504 1506 1507 1509 1511 1512 1514 1515 1517 1518 1519 1520 1521 1522 1522 1523 1524 1525 1525 1525 1526 1527 1527 1528 1529 1529 1530
1486 1484 1482 1479 1477 1477 1477 1476 1477 1476 1477 1479 1482 1483 1486 1487 1490 1492 1494 1496 1498 1501 1502 1504 1506 1507 1509 1511 1513 1514 1516 1517 1518 1519 1520 1521 1521 1522 1523 1524 1524 1525 1525 1526 1527 1528 1529 1529 1530
1484 1484 1480 1475 1473 1473 1475 1478 1474 1473 1475 1477 1480 1481 1484 1486 1488 1490 1491 1493 1496 1498 1500 1502 1504 1506 1508 1510 1511 1513 1514 1516 1517 1518 1519 1520 1520 1521 1522 1523 1523 1524 1525 1526 1526 1527 1528 1529 1529
1485 1488 1490 1476 1472 1470 1477 1485 1472 1471 1473 1475 1478 1480 1482 1484 1486 1488 1490 1492 1494 1496 1498 1500 1502 1505 1507 1508 1510 1511 1513 1514 1515 1516 1517 1518 1519 1520 1521 1522 1523 1523 1524 1525 1526 1526 1527 1528 1528
1492 1497 1492 1481 1470 1470 1475 1481 1471 1470 1471 1473 1475 1477 1479 1481 1484 1486 1487 1489 1491 1493 1496 1498 1501 1503 1505 1507 1508 1510 1511 1513 1514 1515 1516 1517 1518 1518 1519 1520 1521 1522 1523 1524 1525 1525 1526 1527 1527
1499 1495 1490 1484 1472 1471 1475 1476 1469 1469 1469 1471 1474 1476 1478 1479 1481 1483 1485 1487 1489 1492 1495 1497 1499 1501 1504 1506 1507 1509 1510 1511 1512 1513 1514 1515 1516 1517 1517 1518 1520 1521 1522 1522 1523 1524 1525 1526 1526
1487 1489 1489 1479 1469 1472 1474 1473 1469 1468 1469 1471 1473 1474 1476 1478 1480 1481 1484 1486 1488 1491 1493 1495 1497 1500 1502 1504 1506 1507 1508 1509 1511 1512 1512 1513 1514 1515 1515 1516 1518 1519 1520 1521 1522 1523 1523 1524 1525
1483 1487 1485 1477 1467 1469 1472 1472 1468 1466 1467 1468 1470 1472 1474 1476 1479 1480 1482 1485 1487 1490 1492 1494 1496 1498 1500 1502 1504 1505 1506 1507 1509 1510 1511 1512 1512 1513 1514 1515 1516 1517 1518 1520 1520 1521 1522 1523 1524
1479 1483 1481 1479 1471 1468 1471 1478 1472 1467 1466 1467 1468 1470 1471 1473 1475 1478 1481 1483 1486 1489 1491 1493 1495 1497 1498 1500 1502 1504 1505 1506 1507 1508 1509 1510 1511 1512 1512 1513 1514 1515 1516 1517 1519 1520 1520 1521 1523
1480 1469 1471 1471 1478 1484 1478 1493 1478 1470 1468 1467 1467 1468 1470 1472 1474 1476 1478 1481 1483 1486 1489 1491 1493 1495 1497 1499 1500 1501 1502 1503 1505 1506 1507 1508 1509 1510 1511 1512 1513 1514 1515 1516 1517 1518 1519 1520 1520
1469 1462 1465 1468 1475 1482 1480 1490 1483 1471 1472 1468 1467 1468 1468 1470 1472 1474 1476 1478 1481 1484 1486 1489 1491 1493 1495 1496 1498 1499 1500 1501 1503 1505 1506 1507 1508 1509 1509 1510 1511 1512 1513 1514 1516 1516 1517 1518 1518
1459 1463 1466 1472 1481 1493 1483 1488 1487 1476 1469 1466 1466 1466 1467 1468 1470 1472 1475 1477 1480 1482 1484 1487 1488 1490 1492 1494 1496 1497 1498 1500 1501 1503 1504 1505 1506 1507 1508 1509 1510 1511 1512 1513 1514 1514 1515 1516 1516
1460 1477 1494 1496 1501 1496 1479 1483 1483 1467 1462 1461 1462 1464 1465 1465 1467 1471 1473 1475 1478 1480 1482 1484 1486 1487 1489 1492 1494 1495 1497 1498 1500 1501 1502 1503 1504 1504 1505 1506 1507 1508 1509 1511 1511 1512 1513 1514 1514
1460 1472 1494 1502 1502 1494 1481 1484 1475 1462 1459 1458 1458 1460 1463 1465 1466 1469 1471 1473 1475 1477 1480 1482 1484 1486 1488 1490 1492 1494 1495 1497 1498 1499 1500 1501 1501 1502 1503 1504 1505 1506 1507 1508 1509 1509 1510 1511 1512
1459 1466 1467 1483 1487 1494 1489 1478 1469 1460 1459 1458 1459 1461 1463 1464 1465 1467 1470 1472 1473 1476 1478 1481 1482 1484 1485 1487 1489 1492 1493 1495 1496 1497 1498 1499 1499 1500 1501 1502 1503 1504 1505 1506 1506 1507 1508 1508 1509
1451 1456 1472 1483 1495 1499 1490 1484 1480 1468 1464 1461 1461 1461 1461 1462 1464 1466 1468 1470 1472 1475 1477 1480 1482 1482 1484 1486 1488 1490 1492 1493 1494 1495 1496 1496 1497 1498 1499 1500 1500 1501 1502 1503 1504 1504 1505 1505 1506
1455 1460 1468 1478 1481 1494 1498 1490 1466 1465 1462 1461 1461 1460 1461 1461 1462 1465 1466 1468 1471 1473 1476 1478 1480 1481 1483 1486 1487 1488 1490 1491 1492 1493 1494 1495 1495 1496 1497 1497 1498 1499 1499 1500 1501 1501 1502 1502 1503
1451 1457 1466 1480 1483 1483 1489 1486 1458 1458 1458 1458 1458 1459 1460 1461 1463 1464 1465 1467 1470 1473 1475 1476 1478 1480 1482 1485 1486 1487 1488 1489 1490 1491 1491 1492 1494 1494 1495 1495 1496 1496 1497 1497 1498 1498 1499 1499 1500